Weather History for KGJT - February, 2014

Change the Weather History Date:

Friday, February 7, 2014

  Actual Average Record
Temperature  
Mean Temperature 32 °F 32 °F  
Max Temperature 39 °F 42 °F 60 °F (1995)
Min Temperature 25 °F 21 °F -15 °F (1903)
Degree Days  
Heating Degree Days 33 33  
Month to date heating degree days 302 240  
Since 1 July heating degree days 4411 3766  
Cooling Degree Days 0 0  
Month to date cooling degree days 0 0  
Year to date cooling degree days 0 0  
Moisture  
Dew Point 26 °F    
Average Humidity 78    
Maximum Humidity 92    
Minimum Humidity 64    
Precipitation  
Precipitation T in 0.02 in 0.41 in (1965)
Month to date precipitation 0.14 0.12  
Year to date precipitation 0.81 0.70  
Snow  
Snow T in 0.10 in 4.90 in (1929)
Month to date snowfall 2.6 0.9  
Since 1 July snowfall 25.7 13.2  
Snow Depth 4.00 in    
Sea Level Pressure  
Sea Level Pressure 29.95 in    
Wind  
Wind Speed 4 mph (East)    
Max Wind Speed 12 mph    
Max Gust Speed 12 mph    
Visibility 8 miles    
Events Snow    
T = Trace of Precipitation, MM = Missing Value Source: NWS Daily Summary

Daily Weather History Graph

Daily Weather History Graph

Search for Another Location

Airport or City:

Trip Planner

Search our weather history database for the weather conditions in past years. The results will help you decide how hot, cold, wet, or windy it might be!

Date:

Astronomy

Feb. 07, 2014 Rise Set
Actual Time 7:14 AM MST 5:42 PM MST
Civil Twilight 6:47 AM MST 6:10 PM MST
Nautical Twilight 6:15 AM MST 6:41 PM MST
Astronomical Twilight 5:44 AM MST 7:13 PM MST
Moon 11:56 AM MST (2/7) 1:33 AM MST (2/7)
Length of Visible Light 11h 23m
Length of Day
10h 27m
First Quarter, 60% of the Moon is Illuminated
Feb 7
First Quarter
Feb 14
Full
Feb 22
Last Quarter
Mar 1
New
Mar 8
First Quarter

Hourly Weather History & Observations

Time (MST) Temp. Windchill Dew Point Humidity Pressure Visibility Wind Dir Wind Speed Gust Speed Precip Events Conditions
12:53 AM 27.0 °F 21.6 °F 21.0 °F 78% 29.92 in 10.0 mi West 4.6 mph - N/A   Overcast
1:53 AM 26.1 °F - 21.9 °F 84% 29.91 in 6.0 mi Calm Calm - 0.00 in Snow Light Snow
2:53 AM 26.1 °F - 23.0 °F 88% 29.91 in 9.0 mi Calm Calm - 0.00 in   Overcast
3:53 AM 27.0 °F 18.7 °F 24.1 °F 89% 29.92 in 5.0 mi East 8.1 mph - 0.00 in Snow Light Snow
4:53 AM 27.0 °F - 25.0 °F 92% 29.93 in 8.0 mi Calm Calm - 0.00 in   Overcast
5:53 AM 27.0 °F - 24.1 °F 89% 29.93 in 7.0 mi Calm Calm - 0.00 in   Overcast
6:53 AM 26.1 °F 20.5 °F 24.1 °F 92% 29.93 in 5.0 mi SSE 4.6 mph - 0.00 in Snow Light Snow
7:53 AM 27.0 °F - 25.0 °F 92% 29.94 in 3.0 mi Calm Calm - 0.00 in Snow Light Snow
8:53 AM 28.9 °F - 27.0 °F 92% 29.97 in 5.0 mi Calm Calm - 0.00 in   Overcast
9:20 AM 28.0 °F 24.2 °F 26.1 °F 92% 29.90 in 2.5 mi East 3.5 mph - 0.00 in Snow Light Snow
9:30 AM 30.0 °F - 27.0 °F 88% 29.90 in 4.0 mi Calm Calm - 0.00 in   Overcast
9:53 AM 30.0 °F - 27.0 °F 88% 29.96 in 6.0 mi Calm Calm - 0.00 in   Overcast
10:53 AM 30.0 °F 24.1 °F 28.0 °F 92% 29.98 in 6.0 mi NNW 5.8 mph - N/A   Overcast
11:53 AM 35.1 °F - 28.0 °F 76% 29.95 in 10.0 mi Calm Calm - N/A   Overcast
12:53 PM 34.0 °F 28.8 °F 28.9 °F 82% 29.94 in 10.0 mi WNW 5.8 mph - N/A   Overcast
2:53 PM 37.9 °F 35.5 °F 27.0 °F 65% 29.93 in 10.0 mi ENE 3.5 mph - N/A   Clear
3:53 PM 36.0 °F 30.3 °F 28.0 °F 73% 29.93 in 10.0 mi East 6.9 mph - N/A   Clear
4:53 PM 35.1 °F 32.2 °F 28.0 °F 76% 29.94 in 10.0 mi East 3.5 mph - N/A   Clear
5:53 PM 30.0 °F 25.2 °F 27.0 °F 88% 29.97 in 10.0 mi ENE 4.6 mph - N/A   Clear
6:53 PM 33.1 °F 28.7 °F 26.1 °F 75% 29.98 in 10.0 mi East 4.6 mph - N/A   Mostly Cloudy
7:53 PM 32.0 °F 27.5 °F 27.0 °F 82% 29.98 in 10.0 mi East 4.6 mph - N/A   Overcast
8:53 PM 33.1 °F 26.1 °F 26.1 °F 75% 29.97 in 10.0 mi East 8.1 mph - N/A   Overcast
9:53 PM 32.0 °F 23.6 °F 24.1 °F 73% 29.99 in 10.0 mi East 10.4 mph - N/A   Scattered Clouds
10:53 PM 30.0 °F 26.5 °F 25.0 °F 82% 30.01 in 10.0 mi WSW 3.5 mph - N/A   Scattered Clouds
11:53 PM 30.0 °F 23.2 °F 25.0 °F 82% 30.02 in 10.0 mi East 6.9 mph - N/A   Overcast